INTELSAT 904 (IS-904)

Last updated on Wed Sep 17 2025 00:02:46 GMT+0000 (Coordinated Universal Time)

1 27380U 02007A 25259.36410163 -.00000221 00000+0 00000+0 0 9990 2 27380 6.2309 72.4561 0003022 118.6032 268.1121 1.00270846 49029
UTC large
Height (km)
Speed (km/s)
/
Latitude / Longitude
Inclination (degrees)
Orbital Period (minutes)
Azimuth
Elevation
Range (km)
Doppler Factor

Next 0 passes for location: London (51.5072 / 0.1276)

Sorry there are no passes over London.